Regional Weather Roundup
Issued by NWS Binghamton, NY

Home | Current Version | Previous Version | Text Only | Print | Product List | Glossary On
Versions: 1 2 3 4 5 6 7 8 9 10 11 12 13 14 15 16 17 18 19 20 21 22 23 24 25 26 27
000
ASUS41 KBGM 241210
RWRBGM
RWRBGM
BINGHAMTON REGIONAL WEATHER ROUNDUP
NATIONAL WEATHER SERVICE BINGHAMTON NY
800 AM EDT THU APR 24 2014

Note: "fair" indicates few or no clouds below 12,000 feet with no
significant weather and/or obstructions to visibility.

* = Station(s) that does not report precipitation, such as rain,
snow, etc, also no thunder or fog.

!NYZ009-015>018-022>025-036-037-044>046-055>057-062-241300
...CENTRAL NEW YORK...

CITY           SKY/WX    TMP DP  RH WIND       PRES   REMARKS
BINGHAMTON     SUNNY     34  18  52 NW14G22   29.98R WCI  25
CORTLAND       FAIR      36  23  60 NW8       30.04R WCI  29
DANSVILLE      SUNNY     32  25  75 S3        30.13R
ELMIRA         SUNNY     38  18  44 VRB3      30.07R
ITHACA         SUNNY     35  23  62 NW15      30.06R WCI  25
HAMILTON       SUNNY     37  19  48 NW14G24   29.98  WCI  29
HORNELL        SUNNY     28  23  80 CALM      30.13S
MONTICELLO     SUNNY     36  16  44 NW18G28   29.92R WCI  25
NORWICH        SUNNY     36  18  48 NW10G24   30.00R WCI  28
ONEONTA        SUNNY     32  16  51 N6G18     29.92R WCI  26
PENN YAN       SUNNY     37  21  52 NW13      30.08R WCI  29
ROME           SUNNY     35  20  54 W13       30.02R WCI  26
SIDNEY         SUNNY     37  19  48 NW6       29.99R WCI  33
SYRACUSE       SUNNY     39  20  46 NW12G23   30.06R WCI  32
$$

!PAZ038>040-043-044-047-048-072-241300
...NORTHEAST PENNSYLVANIA...

CITY           SKY/WX    TMP DP  RH WIND       PRES   REMARKS
SCRANTON       SUNNY     38  18  44 NW12      30.00R WCI  30
TOWANDA*       SUNNY     37  16  41 W6        30.06S WCI  33
$$
&&
KEY
WCI = WIND CHILL INDEX
VSB = VISIBILITY
HX  = HEAT INDEX
$$



USA.gov is the U.S. government's official web portal to all federal, state and local government web resources and services.